Flag for French Polynesia Weather past 2 weeks in Papeete, Tahiti, French Polynesia

Now
82 °F

Broken clouds.


Feels Like: 86 °F
Forecast: 75 / 83 °F
Wind: 3 mph from North

Location: Tahiti-Faaa

Current Time: Jul 4, 2015 at 2:23:59 PM

Latest Report: Jul 4, 2015 at 2:00 PM


Visibility: N/A

Pressure: 29.89 "Hg

Humidity: 66%

Dew point: 70 °F

Location of PapeeteLocation

Historic Weather in Papeete — Graph

°F

Papeete temperature yesterday

Maximum temperature yesterday: 84 °F (at 11:00 AM)
Minimum temperature yesterday: 72 °F (at 9:30 PM)
Average temperature yesterday: 76 °F

Past Weeks' High & Low Weather Summary

 TemperatureHumidityPressure
High86 °F (Jun 19, 1:00 PM)100% (Jun 20, 12:00 AM)29.98 "Hg (Jun 20, 12:00 AM)
Low68 °F (Jun 25, 1:00 AM)48% (Jun 24, 9:00 AM)29.77 "Hg (Jun 19, 4:00 PM)
Average77 °F75%29.87 "Hg
* Reported Jun 19 1:00 PM — Jul 4 1:00 PM, Papeete, Weather by CustomWeather, © 2015

Note: Actual official high and low records may vary slightly from our data, if they occured in-between our weather recording intervals... More about our weather records

Advertising

Papeete weather history for previous 24 hours

 ConditionsComfort  
Time TempWeatherWind HumidityBarometerVisibility
1:00 PM
Sat, Jul 4
81 °FPartly sunny.3 mph66%29.92 "HgN/A
12:30 PM81 °FBroken clouds.9 mph66%29.92 "HgN/A
12:00 PM82 °FBroken clouds.6 mph66%29.92 "HgN/A
11:30 AM82 °FBroken clouds.6 mph66%29.95 "HgN/A
11:00 AM81 °FBroken clouds.5 mph70%29.95 "HgN/A
10:30 AM81 °FBroken clouds.5 mph70%29.95 "HgN/A
10:00 AM81 °FPassing clouds.6 mph70%29.95 "HgN/A
9:30 AM81 °FPassing clouds.3 mph70%29.95 "HgN/A
9:20 AM81 °FPassing clouds.2 mph70%29.95 "HgN/A
8:30 AM79 °FPassing clouds.2 mph70%29.95 "HgN/A
8:00 AM77 °FPassing clouds.3 mph79%29.95 "HgN/A
7:41 AM75 °FScattered clouds.1 mph83%29.92 "HgN/A
7:00 AM73 °FPartly sunny.3 mph83%29.92 "HgN/A
6:30 AM73 °FPartly sunny.3 mph83%29.89 "HgN/A
6:00 AM73 °FPassing clouds.3 mph89%29.89 "HgN/A
5:30 AM73 °FOvercast.2 mph89%29.89 "HgN/A
5:00 AM73 °FMostly cloudy.No wind83%29.89 "HgN/A
4:30 AM73 °FMostly cloudy.2 mph83%29.86 "HgN/A
4:00 AM73 °FOvercast.3 mph83%29.86 "HgN/A
3:30 AM73 °FPassing clouds.3 mph83%29.86 "HgN/A
3:00 AM73 °FPassing clouds.2 mph83%29.86 "HgN/A
2:30 AM73 °FPassing clouds.6 mph83%29.86 "HgN/A
2:00 AM73 °FPassing clouds.3 mph83%29.86 "HgN/A
1:30 AM72 °FPassing clouds.3 mph88%29.86 "HgN/A
1:00 AM73 °FPassing clouds.5 mph83%29.86 "HgN/A
12:30 AM73 °FPassing clouds.5 mph89%29.89 "HgN/A
12:00 AM73 °FPassing clouds.3 mph89%29.89 "HgN/A
11:30 PM
Fri, Jul 3
73 °FPartly cloudy.5 mph89%29.89 "HgN/A
11:00 PM73 °FPartly cloudy.No wind89%29.89 "HgN/A
10:30 PM73 °FPassing clouds.3 mph89%29.89 "HgN/A
10:00 PM73 °FPartly cloudy.3 mph89%29.89 "HgN/A
9:30 PM72 °FPassing clouds.3 mph94%29.89 "HgN/A
9:00 PM73 °FPassing clouds.3 mph89%29.89 "HgN/A
8:30 PM73 °FPassing clouds.2 mph89%29.89 "HgN/A
8:00 PM73 °FPassing clouds.1 mph89%29.89 "HgN/A
7:30 PM73 °FPassing clouds.3 mph89%29.89 "HgN/A
7:00 PM73 °FPassing clouds.3 mph94%29.86 "HgN/A
6:30 PM73 °FPassing clouds.6 mph83%29.86 "HgN/A
6:00 PM73 °FPassing clouds.8 mph83%29.86 "HgN/A
5:30 PM73 °FLight rain. Partly sunny.8 mph89%29.86 "HgN/A
5:00 PM73 °FPartly sunny.9 mph89%29.86 "HgN/A
4:30 PM73 °FLight rain. Broken clouds.8 mph94%29.83 "HgN/A
4:00 PM73 °FLight rain. Broken clouds.15 mph94%29.83 "Hg3 mi
3:30 PM75 °FLight rain. Broken clouds.17 mph89%29.83 "Hg3 mi
3:00 PM77 °FLight rain. Broken clouds.6 mph83%29.83 "Hg5 mi
2:30 PM79 °FScattered showers. Broken clouds.7 mph79%29.83 "HgN/A
2:00 PM79 °FLight rain. Broken clouds.3 mph79%29.83 "Hg5 mi
Weather by CustomWeather, © 2015

See weather overviewHow to use our weather pages